Regional Weather Roundup
Issued by NWS Northern Indiana

Home | Current Version | Previous Version | Graphics & Text | Print | Product List | Glossary On
Versions: 1 2 3 4 5 6 7 8 9 10 11 12 13 14 15 16 17 18 19 20 21 22 23 24 25 26 27 28 29 30 31 32 33 34 35 36 37 38 39 40 41 42 43 44 45 46 47 48 49 50
756
ASUS43 KIWX 290910
RWRIWX

KIWX WEATHER ROUNDUP
NATIONAL WEATHER SERVICE NORTHERN INDIANA
500 AM EDT WED MAR 29 2017

NOTE: "FAIR" INDICATES FEW OR NO CLOUDS BELOW 12,000 FEET WITH NO
SIGNIFICANT WEATHER AND/OR OBSTRUCTIONS TO VISIBILITY.

* THESE STATIONS ARE NOT UNDER NWS QUALITY CONTROL. THEY ALSO MAY NOT
  REPORT WEATHER SUCH AS PRECIPITATION OR FOG.

INZ001>027-291000-
NORTHERN INDIANA

CITY           SKY/WX    TMP DP  RH WIND       PRES   REMARKS
GARY*          FOG       37  37 100 NE8       30.23R VSB 1/2
VALPARAISO     CLEAR     37  36  96 NE7       30.21R
MICHIGAN CITY* PTCLDY    32  32 100 CALM      30.23R FOG
LAPORTE*       CLEAR     37  36  95 NE5       30.21R
KNOX*          CLEAR     36  28  75 NE6       30.20R
SOUTH BEND     CLEAR     36  35  96 NE6       30.21S
GOSHEN         CLEAR     33  30  88 NE6       30.20F FOG     WCI  28
MONTICELLO*    CLOUDY    46  41  83 E8        30.17R
LOGANSPORT*    CLOUDY    45  41  87 E8        30.19R
WARSAW*        CLEAR     36  34  93 NE3       30.19F
ANGOLA*        CLEAR     30  30 100 CALM      30.20S
FORT WAYNE     PTCLDY    39  35  86 NE9       30.19F
HUNTINGTON*    CLEAR     39  38  94 NE5       30.17F
PERU/GRISSOM   CLOUDY    45  43  93 E12       30.16R
MARION*        CLOUDY    44  40  86 E8        30.17F

$$
INZ028>050-291000-
CENTRAL INDIANA

CITY           SKY/WX    TMP DP  RH WIND       PRES   REMARKS
LAFAYETTE      CLOUDY    46  44  93 NE15      30.16R
KOKOMO*        CLOUDY    45  41  86 E10       30.17F
MUNCIE*        CLOUDY    46  42  86 E9        30.15F
INDIANAPOLIS   CLOUDY    49  44  83 E12       30.12F

$$
MIZ043>046-050>051-056>058-064>065-071>073-077>080-291000-
SOUTHWEST LOWER MICHIGAN

CITY           SKY/WX    TMP DP  RH WIND       PRES   REMARKS
BATTLE CREEK   CLEAR     33  32  96 E3        30.23S
BENTON HARBOR  CLEAR     30  27  88 CALM      30.22F
COLDWATER*     CLEAR     32  32 100 E3        30.22S
HILLSDALE*     CLEAR     32  30  93 NE3       30.21R
HOLLAND        CLEAR     30  28  92 CALM      30.23F FOG
GRAND RAPIDS   CLEAR     33  32  96 E3        30.24S
KALAMAZOO      FOG       32  29  88 CALM      30.23S VSB 1/4
STURGIS*       PTCLDY    33  33 100 NE3       30.21S FOG
THREE RIVERS*  FAIR      31  31 100 CALM      30.23S FOG

$$
OHZ001>008-015>018-024>025-291000-
NORTHWEST OHIO

CITY           SKY/WX    TMP DP  RH WIND       PRES   REMARKS
WAUSEON*       FAIR      34  34 100 NE5       30.22S FOG     WCI  30
DEFIANCE       CLEAR     35  32  88 E3        30.22S
FINDLAY        CLOUDY    38  31  76 NE7       30.19F
TOLEDO EXPRESS CLOUDY    35  33  92 NE5       30.22S WCI  31
TOLEDO METCALF PTCLDY    38  34  85 NE7       30.23R
LIMA           MOCLDY    37  34  89 NE10      30.18F

$$
AND FOR LAKE MICHIGAN COASTAL AND OPEN LAKE BUOY OBSERVATIONS

STATION/POSITION TEMP    WIND        PRES    VSBY  WAVE
                 AIR SEA DIR/SP/G                  HT/PER
                 (F)     (DEG/KT/KT) (MB)    (MI)  (FT/S)
CALUMET HARBOR    34      20/  9/ 11 1022.9R
MICHIGAN CITY     36      20/  8/  8   N/A
BURNS HARBOR      35      40/ 10/ 12 1023.7
SAINT JOSEPH      34      CALM  /  2 1023.4

$$
&&




USA.gov is the U.S. government's official web portal to all federal, state and local government web resources and services.